Regional Weather Roundup
Issued by NWS

Home | Current Version | Previous Version | Graphics & Text | Print | Product List | Glossary On
Versions: 1 2 3 4 5 6 7 8 9 10 11 12 13 14 15 16 17 18 19 20 21 22 23 24 25 26 27 28 29 30 31 32 33 34 35 36 37 38 39 40 41 42 43 44 45 46 47 48 49 50
000
ASUS43 KBIS 311010
RWRND

NORTH DAKOTA REGIONAL WEATHER ROUNDUP
NATIONAL WEATHER SERVICE BISMARCK ND
500 AM CDT MON AUG 31 2015

NOTE: "FAIR" INDICATES FEW OR NO CLOUDS BELOW 12,000 FEET WITH NO
SIGNIFICANT WEATHER AND/OR OBSTRUCTIONS TO VISIBILITY.


NDZ001>003-009>011-017-311100-
NORTHWEST NORTH DAKOTA

CITY           SKY/WX    TMP DP  RH WIND       PRES   REMARKS
WILLISTON        N/A    N/A N/A N/A MISG      29.77R
MINOT          TSTM      66  55  67 W15       29.73R
MINOT AFB      TSTM      63  61  94 NW8       29.70R
$$

NDZ018>021-031>035-040>046-311100-
SOUTHWEST NORTH DAKOTA

CITY           SKY/WX    TMP DP  RH WIND       PRES   REMARKS
BISMARCK       CLOUDY    70  60  70 N7        29.65R HAZE
DICKINSON      MOCLDY    62  56  80 NW8       29.76R
GARRISON         N/A     63  57  81 N8        29.70R
HETTINGER ARPT MOCLDY    64  49  57 N9        29.75F
$$

NDZ004>008-012>016-024-026-027-054-311100-
NORTHEAST NORTH DAKOTA

CITY           SKY/WX    TMP DP  RH WIND       PRES   REMARKS
GRAND FORKS    PTCLDY    66  62  87 S10       29.64S
GRND FRKS AFB  PTCLDY    65  64  94 S7        29.64S
DEVILS LAKE    CLOUDY    68  63  83 E10       29.59F
$$

NDZ022-023-025-028>030-036>039-047>053-311100-
SOUTHEAST NORTH DAKOTA

CITY           SKY/WX    TMP DP  RH WIND       PRES   REMARKS
FARGO          CLEAR     67  59  75 S15       29.67F
JAMESTOWN      MOCLDY    67  63  87 S16       29.64R
$$




USA.gov is the U.S. government's official web portal to all federal, state and local government web resources and services.